Regional Weather Roundup
Issued by NWS

Home | Current Version | Previous Version | Text Only | Print | Product List | Glossary On
Versions: 1 2 3 4 5 6 7 8 9 10 11 12 13 14 15 16 17 18 19 20 21 22 23 24 25 26 27 28 29 30 31 32 33 34 35 36 37 38 39 40 41 42 43 44 45 46 47 48 49 50
000
ASUS43 KMKX 260700
RWRWI

WISCONSIN REGIONAL WEATHER ROUNDUP
NATIONAL WEATHER SERVICE MILWAUKEE/SULLIVAN WI
200 AM CDT MON SEP 26 2016

NOTE: "FAIR" INDICATES FEW OR NO CLOUDS BELOW 12,000 FEET WITH NO
SIGNIFICANT WEATHER AND/OR OBSTRUCTIONS TO VISIBILITY.

WIZ001-002-006>008-014>016-023>028-260800-
NORTHWEST WISCONSIN

CITY           SKY/WX    TMP DP  RH WIND       PRES   REMARKS
SUPERIOR ARPT  DRIZZLE   51  49  93 W10G22    29.76F
ASHLAND        CLOUDY    53  47  79 SW14G25   29.74F
HAYWARD        CLOUDY    51  45  79 SW12G20   29.81F
SIREN          DRIZZLE   51  45  79 W12G17    29.86F
CUMBERLAND     CLOUDY    50  43  76 W15G21    29.86F
RICE LAKE      CLOUDY    53  42  67 W15G22    29.89S
CHETEK         NOT AVBL
LADYSMITH      CLOUDY    52  44  76 W12G17    29.86F
EAU CLAIRE     NOT AVBL
MENOMONIE      CLEAR     54  45  73 W15G22    29.92S
NEW RICHMOND   CLOUDY    53  43  69 W20G25    29.92F
OSCEOLA        CLOUDY    54  44  68 W17G26    29.94F
$$

WIZ003>005-009-010-017-018-260800-
NORTH CENTRAL WISCONSIN

CITY           SKY/WX    TMP DP  RH WIND       PRES   REMARKS
MANITOWISH WTR NOT AVBL
ARBOR VITAE    CLOUDY    52  50  93 W9        29.79S
WOODRUFF       CLOUDY    52  50  93 W9        29.79S
RHINELANDER    CLOUDY    52  51  97 W10       29.80F
EAGLE RIVER    CLOUDY    52  50  92 W14       29.78S
LAND O LAKES   CLOUDY    53  49  87 W9G17     29.78S
PHILLIPS       CLOUDY    51  47  89 SW8       29.81F
TOMAHAWK       CLOUDY    51  46  82 W10G17    29.83S
MEDFORD        PTCLDY    49  46  90 W8        29.86S
MERRILL        CLOUDY    54  49  84 W20       29.84F
$$

WIZ029-030-035-036-043>047-260800-
CENTRAL WISCONSIN

CITY           SKY/WX    TMP DP  RH WIND       PRES   REMARKS
WAUSAU         CLOUDY    52  44  74 W20G25    29.84S
MOSINEE        PTCLDY    52  45  76 W17G23    29.88R
MARSHFIELD     CLEAR     52  42  69 W14G21    29.88F
STEVENS POINT  CLOUDY    54  46  73 W8G26     29.89S
WAUPACA        CLOUDY    58  51  78 W15       29.89S
WAUTOMA        CLOUDY    58  46  64 W12G23    29.91S
WISC RAPIDS    CLOUDY    54  46  74 W13G21    29.92S
CAMP DOUGLAS   NOT AVBL
$$

WIZ011>013-019>022-031-037>040-048>050-260800-
NORTHEAST WISCONSIN

CITY           SKY/WX    TMP DP  RH WIND       PRES   REMARKS
ANTIGO         CLOUDY    53  49  88 W12G18    29.83S
SHAWANO        CLOUDY    59  52  78 W10       29.84S
OCONTO         NOT AVBL
STURGEON BAY   CLOUDY    60  55  83 W9G16     29.81F
GREEN BAY      CLOUDY    59  55  87 W10       29.84S
MANITOWOC      NOT AVBL
APPLETON       CLOUDY    55  50  82 W16       29.86S
CLINTONVILLE   NOT AVBL
OSHKOSH        CLOUDY    58  47  66 W12G18    29.89S
$$

WIZ032>034-041-042-053>061-260800-
SOUTHWEST WISCONSIN

CITY           SKY/WX    TMP DP  RH WIND       PRES   REMARKS
LA CROSSE      CLEAR     58  48  69 W14       29.96F
SPARTA         CLEAR     54  49  85 W5        29.96S
VIROQUA        CLEAR     53  50  90 W8        29.98S
BOSCOBEL       CLOUDY    57  50  77 SW6       30.00S
PRAIRIE DU CHI CLOUDY    56  49  75 W12       30.01S
PLATTEVILLE    CLOUDY    57  52  84 W10       30.02R
$$

WIZ056-057-062-063-064-067-068-260800-
SOUTH CENTRAL WISCONSIN

CITY           SKY/WX    TMP DP  RH WIND       PRES   REMARKS
REEDSBURG      NOT AVBL
BARABOO/DELLS  CLOUDY    56  48  73 W7        29.95S
LONE ROCK      NOT AVBL
MINERAL POINT  CLOUDY    59  52  77 W10       30.00S
MADISON        CLOUDY    59  49  69 VRB7      29.96R
MIDDLETON      CLOUDY    59  50  73 W12       29.98R
WATERTOWN      CLOUDY    58  53  81 W14       29.94R
MONROE         CLOUDY    59  50  72 W15       29.99R
JANESVILLE     CLOUDY    61  52  72 W10       29.96S
$$

WIZ051-052-058>065-066-070>072-260800-
SOUTHEAST WISCONSIN

CITY           SKY/WX    TMP DP  RH WIND       PRES   REMARKS
MILWAUKEE      CLOUDY    63  53  70 W15G24    29.92R
WAUKESHA       CLOUDY    59  52  77 W16G22    29.94R
MILWAUKEE/TIMM CLOUDY    61  50  67 W17G23    29.92R
RACINE         CLOUDY    62  53  72 W10G20    29.94R
BURLINGTON     CLOUDY    59  52  77 W7        29.94S
KENOSHA        CLOUDY    62  54  74 W12       29.94R
FOND DU LAC    CLOUDY    60  52  74 W14G23    29.91R
SHEBOYGAN      CLOUDY    60  52  74 W14G22    29.88R
WEST BEND      CLOUDY    59  52  77 W16G25    29.91R
JUNEAU         CLOUDY    58  51  77 W12G18    29.94S
$$

LSZ147-162-260800-
LAKE SUPERIOR

STATION/POSITION TIME  TEMP    WIND        PRES    WAVE
                       AIR SEA DIR/SP/G            HT/PER
                 (UTC) (F)     (DEG/KT/KT) (MB)    (FT/S)
W MID LAKE BUOY  0550   58 60  240/ 25/ 29 1004.1F   5/ 6
DEVILS ISLAND    0600   53     240/ 29/ 34 1005.7F
SAXON HARBOR     0500   58     220/  7/ 13 1008.1
$$

LMZ867-665-643>646-260800-
LAKE MICHIGAN

STATION/POSITION TIME  TEMP    WIND        PRES    WAVE
                       AIR SEA DIR/SP/G            HT/PER
                 (UTC) (F)     (DEG/KT/KT) (MB)    (FT/S)
CHAMBERS ISLAND  0600   62     220/  7/ 13 1008.8S
N MID LAKE BUOY  0550   67 67  240/ 17/ 21 1007.2F   5/ 7
NORTHPORT PIER   0600   62     260/  4/  8 1008.5R
KEWAUNEE LAKESHO 0600   62     260/  9/ 13 1009.8F
SHEBOYGAN LAKESH 0600   63     260/ 10/ 13 1010.9F
PORT WASHINGTON  0600   63     260/ 10/ 14 1012.5S
ATWATER BUOY     0600   62     260/ 12/ 16 1012.4S
MILWAUKEE LAKESH 0610   63     280/ 12/ 15   N/A
S MID LAKE BUOY  0550   67 72  280/ 19/ 23 1012.1R   4/ 4
KENOSHA   LAKESH 0600   64     270/ 14/ 22 1012.9S
$$

TC  - TEMPERATURE IN CELSIUS
VSB - VISIBILITY IN STATUTE MILES
WCI - WIND CHILL INDEX
HX  - HEAT INDEX




USA.gov is the U.S. government's official web portal to all federal, state and local government web resources and services.